Regional Weather Roundup
Issued by NWS

Home | Current Version | Previous Version | Graphics & Text | Print | Product List | Glossary On
Versions: 1 2 3 4 5 6 7 8 9 10 11 12 13 14 15 16 17 18 19 20 21 22 23 24 25 26 27 28 29 30 31 32 33 34 35 36 37 38 39 40 41 42 43 44 45 46 47 48 49 50
000
ASUS43 KLMK 180510
RWRKY
KENTUCKY REGIONAL WEATHER ROUNDUP
NATIONAL WEATHER SERVICE LOUISVILLE KY
1200 AM EST THU JAN 18 2018

NOTE "FAIR" INDICATES FEW OR NO CLOUDS BELOW 12,000 FEET
WITH NO SIGNIFICANT WEATHER AND/OR OBSTRUCTIONS TO VISIBILITY.

KYZ001>023-026-027-061>063-070>075-180600-
WESTERN AND SOUTH CENTRAL KENTUCKY

CITY           SKY/WX    TMP DP  RH WIND       PRES   REMARKS
PADUCAH        FAIR       6   1  80 SW3       30.56F
HENDERSON      FAIR       5   2  87 SW6       30.55F WCI  -6
OWENSBORO      FAIR       6   3  87 S7        30.54F WCI  -6
HOPKINSVILLE   FAIR       7   4  86 W5        30.55F WCI  -2
BOWLING GREEN  FAIR       9   5  84 S3        30.56F
GLASGOW        FAIR       2  -1  88 CALM      30.53F FOG
$$

KYZ024-025-028>034-038-045-046-053-180600-
NORTH CENTRAL KENTUCKY

CITY           SKY/WX    TMP DP  RH WIND       PRES   REMARKS
LOUISVILLE/SDF FAIR      14   7  73 SW5       30.50F WCI   6
LOUISVILLE/LOU FAIR      13   8  81 SW6       30.51F WCI   4
FORT KNOX      FAIR       4   0  85 CALM      30.48F
$$

KYZ035>037-039>044-047>052-055>060-089>105-180600-
NORTHEAST KENTUCKY

CITY           SKY/WX    TMP DP  RH WIND       PRES   REMARKS
LEXINGTON      FAIR       8   2  76 S7        30.47F WCI  -3
COVINGTON      FAIR      13   8  81 SW8       30.42F WCI   2
FRANKFORT      FAIR       8   3  80 SW5       30.47F WCI   0
$$

KYZ054-064>069-076>088-106>120-180600-
SOUTHEAST KENTUCKY

CITY           SKY/WX    TMP DP  RH WIND       PRES   REMARKS
JACKSON        CLOUDY    11   7  84 CALM      30.44F
LONDON         CLOUDY     5   1  83 CALM      30.48F
SOMERSET       FAIR       5   3  92 CALM      30.53F
MIDDLESBORO    MOCLDY    10   7  87 CALM      30.49F
MONTICELLO     FAIR      -2  -6  83 CALM      30.53F
$$





USA.gov is the U.S. government's official web portal to all federal, state and local government web resources and services.